EW5660 Weather Reports


Display with metric or nautical units.
time (UTC)temp
F
wind
direction
speed
MPH
gust
MPH
rain 1hr
in
rain 24hr
in
rain mn
in
humidity
%
barometer
mb
20260508204443 63 261 2.0 13.0 0.00 0.00 0.00 34 1006.8
20260508204321 63 239 3.0 13.0 0.00 0.00 0.00 34 1006.8
20260508204159 63 286 6.0 13.0 0.00 0.00 0.00 33 1006.9
20260508204015 63 278 8.0 13.0 0.00 0.00 0.00 34 1006.9
20260508203857 63 205 8.0 13.0 0.00 0.00 0.00 34 1006.8
20260508203713 63 265 8.0 13.0 0.00 0.00 0.00 34 1006.8
20260508203551 63 279 5.0 11.0 0.00 0.00 0.00 35 1006.8
20260508203433 63 265 5.0 11.0 0.00 0.00 0.00 35 1006.9
20260508203315 63 209 5.0 11.0 0.00 0.00 0.00 36 1006.9
20260508203132 63 267 5.0 11.0 0.00 0.00 0.00 35 1006.9
20260508202949 63 221 6.0 11.0 0.00 0.00 0.00 36 1006.9
20260508202829 63 246 6.0 11.0 0.00 0.00 0.00 36 1006.9
20260508202710 63 236 7.0 11.0 0.00 0.00 0.00 35 1006.9
20260508202553 63 238 5.0 11.0 0.00 0.00 0.00 35 1007.0
20260508202431 63 262 7.0 13.0 0.00 0.00 0.00 35 1007.0
20260508202307 63 272 7.0 13.0 0.00 0.00 0.00 34 1007.0
20260508202145 63 307 5.0 15.0 0.00 0.00 0.00 34 1007.0
20260508202026 63 271 6.0 15.0 0.00 0.00 0.00 35 1007.1
20260508201904 63 227 6.0 15.0 0.00 0.00 0.00 36 1007.1
20260508201742 63 222 7.0 15.0 0.00 0.00 0.00 35 1007.1
20260508201558 63 283 10.0 15.0 0.00 0.00 0.00 34 1007.1
20260508201440 63 250 11.0 15.0 0.00 0.00 0.00 34 1007.1
20260508201317 63 273 8.0 15.0 0.00 0.00 0.00 34 1007.2
20260508201155 63 296 9.0 15.0 0.00 0.00 0.00 33 1007.3
20260508201031 63 263 8.0 15.0 0.00 0.00 0.00 33 1007.2
20260508200913 63 249 5.0 15.0 0.00 0.00 0.00 34 1007.2
20260508200734 63 252 8.0 15.0 0.00 0.00 0.00 33 1007.3
20260508200551 63 239 8.0 13.0 0.00 0.00 0.00 34 1007.3
20260508200429 63 271 7.0 13.0 0.00 0.00 0.00 36 1007.4
20260508200307 63 263 5.0 13.0 0.00 0.00 0.00 35 1007.4
20260508200149 63 293 8.0 13.0 0.00 0.00 0.00 35 1007.4
20260508200026 63 253 8.0 13.0 0.00 0.00 0.00 35 1007.5
20260508195905 63 257 5.0 14.0 0.00 0.00 0.00 36 1007.5
20260508195742 63 229 3.0 14.0 0.00 0.00 0.00 36 1007.5
20260508195624 62 216 4.0 14.0 0.00 0.00 0.00 35 1007.5
20260508195502 62 223 6.0 14.0 0.00 0.00 0.00 35 1007.5
20260508195339 63 269 7.0 14.0 0.00 0.00 0.00 35 1007.6
20260508195156 63 254 10.0 14.0 0.00 0.00 0.00 35 1007.5
20260508195037 63 242 9.0 17.0 0.00 0.00 0.00 36 1007.5
20260508194914 63 266 7.0 17.0 0.00 0.00 0.00 36 1007.5
20260508194753 63 309 5.0 17.0 0.00 0.00 0.00 34 1007.6
20260508194634 63 285 6.0 17.0 0.00 0.00 0.00 35 1007.6
20260508194511 63 300 6.0 17.0 0.00 0.00 0.00 35 1007.7
20260508194353 63 241 10.0 17.0 0.00 0.00 0.00 35 1007.7
20260508194209 63 257 10.0 17.0 0.00 0.00 0.00 35 1007.7
20260508194026 63 245 8.0 16.0 0.00 0.00 0.00 35 1007.7
20260508193905 63 263 9.0 16.0 0.00 0.00 0.00 34 1007.8
20260508193746 63 259 11.0 16.0 0.00 0.00 0.00 35 1007.7
20260508193623 63 290 10.0 15.0 0.00 0.00 0.00 35 1007.7
20260508193439 63 247 5.0 13.0 0.00 0.00 0.00 35 1007.8
20260508193317 63 277 5.0 13.0 0.00 0.00 0.00 35 1007.8
20260508193159 63 321 5.0 13.0 0.00 0.00 0.00 35 1007.8
20260508193036 63 269 6.0 13.0 0.00 0.00 0.00 34 1007.9
20260508192914 63 282 6.0 13.0 0.00 0.00 0.00 35 1007.9
20260508192730 63 302 5.0 9.0 0.00 0.00 0.00 33 1007.9
20260508192557 63 310 6.0 13.0 0.00 0.00 0.00 33 1007.9
20260508192435 63 311 5.0 13.0 0.00 0.00 0.00 33 1007.9
20260508192313 63 243 4.0 13.0 0.00 0.00 0.00 34 1008.0
20260508192151 63 210 4.0 13.0 0.00 0.00 0.00 33 1008.0
20260508192029 63 195 5.0 13.0 0.00 0.00 0.00 32 1008.1
20260508191911 63 219 7.0 13.0 0.00 0.00 0.00 32 1008.1
20260508191748 63 214 7.0 13.0 0.00 0.00 0.00 33 1008.1
20260508191625 63 250 3.0 13.0 0.00 0.00 0.00 33 1008.2
20260508191503 63 296 5.0 13.0 0.00 0.00 0.00 32 1008.1
20260508191345 62 194 7.0 13.0 0.00 0.00 0.00 33 1008.1
20260508191222 62 194 6.0 12.0 0.00 0.00 0.00 33 1008.2
20260508191038 62 218 6.0 12.0 0.00 0.00 0.00 32 1008.2
20260508190916 62 259 5.0 12.0 0.00 0.00 0.00 32 1008.3
20260508190736 62 250 6.0 12.0 0.00 0.00 0.00 33 1008.3
20260508190614 62 315 6.0 12.0 0.00 0.00 0.00 32 1008.3
20260508190452 62 236 7.0 14.0 0.00 0.00 0.00 32 1008.2
20260508190334 62 244 5.0 14.0 0.00 0.00 0.00 33 1008.3
20260508190212 62 272 5.0 14.0 0.00 0.00 0.00 32 1008.3
20260508190053 62 243 8.0 14.0 0.00 0.00 0.00 33 1008.4
20260508185931 62 221 8.0 14.0 0.00 0.00 0.00 32 1008.4
20260508185808 62 200 9.0 14.0 0.00 0.00 0.00 32 1008.4
20260508185646 63 262 6.0 14.0 0.00 0.00 0.00 32 1008.4
20260508185527 63 236 5.0 14.0 0.00 0.00 0.00 31 1008.5
20260508185405 62 235 8.0 14.0 0.00 0.00 0.00 33 1008.5
20260508185243 62 231 6.0 9.0 0.00 0.00 0.00 34 1008.4
20260508185124 62 197 4.0 10.0 0.00 0.00 0.00 35 1008.5
20260508185005 62 261 5.0 14.0 0.00 0.00 0.00 33 1008.5
20260508184843 62 278 4.0 14.0 0.00 0.00 0.00 32 1008.5
20260508184720 62 223 6.0 14.0 0.00 0.00 0.00 32 1008.6
20260508184558 62 258 6.0 16.0 0.00 0.00 0.00 32 1008.7
20260508184435 62 236 6.0 16.0 0.00 0.00 0.00 32 1008.6
20260508184256 62 215 9.0 16.0 0.00 0.00 0.00 33 1008.6
20260508184139 62 242 8.0 16.0 0.00 0.00 0.00 33 1008.6
20260508184022 62 233 9.0 16.0 0.00 0.00 0.00 32 1008.6
20260508183900 62 259 10.0 16.0 0.00 0.00 0.00 33 1008.5
20260508183741 62 247 10.0 16.0 0.00 0.00 0.00 33 1008.5
20260508183556 62 224 4.0 13.0 0.00 0.00 0.00 32 1008.5
20260508183421 62 214 6.0 13.0 0.00 0.00 0.00 32 1008.6
20260508183304 62 244 6.0 13.0 0.00 0.00 0.00 33 1008.7
20260508183129 62 264 5.0 12.0 0.00 0.00 0.00 34 1008.7
20260508183011 62 287 7.0 12.0 0.00 0.00 0.00 33 1008.7
20260508182836 62 247 6.0 11.0 0.00 0.00 0.00 33 1008.7
20260508182703 62 263 4.0 11.0 0.00 0.00 0.00 33 1008.7
20260508182544 61 238 5.0 11.0 0.00 0.00 0.00 33 1008.7
20260508182421 61 239 6.0 11.0 0.00 0.00 0.00 33 1008.8
20260508182259 61 216 3.0 10.0 0.00 0.00 0.00 33 1008.8
20260508182126 61 252 4.0 12.0 0.00 0.00 0.00 34 1008.8
20260508182009 61 281 6.0 12.0 0.00 0.00 0.00 34 1008.9
20260508181851 61 252 7.0 16.0 0.00 0.00 0.00 35 1008.8
20260508181733 61 248 6.0 16.0 0.00 0.00 0.00 36 1008.8
20260508181615 61 270 7.0 16.0 0.00 0.00 0.00 34 1008.8
20260508181458 61 284 7.0 17.0 0.00 0.00 0.00 34 1008.9
20260508181341 61 242 8.0 17.0 0.00 0.00 0.00 34 1008.9
20260508181222 61 277 10.0 17.0 0.00 0.00 0.00 33 1008.8
20260508181101 62 271 8.0 17.0 0.00 0.00 0.00 33 1008.9
20260508180922 62 309 9.0 17.0 0.00 0.00 0.00 33 1009.0
20260508180739 62 272 10.0 17.0 0.00 0.00 0.00 33 1009.0
20260508180622 62 269 8.0 14.0 0.00 0.00 0.00 35 1008.9
20260508180501 62 265 4.0 11.0 0.00 0.00 0.00 35 1008.9
20260508180329 62 243 5.0 11.0 0.00 0.00 0.00 35 1009.0
20260508180146 61 265 3.0 10.0 0.00 0.00 0.00 35 1009.0
20260508180029 61 225 4.0 10.0 0.00 0.00 0.00 35 1009.1
20260508175851 61 300 2.0 14.0 0.00 0.00 0.00 36 1009.1
20260508175657 61 180 4.0 14.0 0.00 0.00 0.00 34 1009.1
20260508175534 61 253 5.0 14.0 0.00 0.00 0.00 33 1009.1
20260508175413 61 225 7.0 14.0 0.00 0.00 0.00 33 1009.1
20260508175253 61 227 7.0 14.0 0.00 0.00 0.00 34 1009.2
20260508175135 61 252 7.0 14.0 0.00 0.00 0.00 34 1009.1
20260508175013 61 238 5.0 14.0 0.00 0.00 0.00 35 1009.2
20260508174835 61 290 4.0 11.0 0.00 0.00 0.00 35 1009.2
20260508174713 61 275 5.0 11.0 0.00 0.00 0.00 35 1009.2
20260508174554 61 217 6.0 11.0 0.00 0.00 0.00 35 1009.3
20260508174353 61 249 5.0 11.0 0.00 0.00 0.00 36 1009.3
20260508174231 61 205 5.0 11.0 0.00 0.00 0.00 36 1009.4
20260508174109 61 189 6.0 12.0 0.00 0.00 0.00 36 1009.4
20260508173947 61 219 5.0 11.0 0.00 0.00 0.00 37 1009.5
20260508173829 60 338 4.0 12.0 0.00 0.00 0.00 36 1009.4
20260508173712 60 297 3.0 12.0 0.00 0.00 0.00 35 1009.4
20260508173529 60 283 5.0 12.0 0.00 0.00 0.00 35 1009.6
20260508173407 60 257 3.0 12.0 0.00 0.00 0.00 34 1009.5
20260508173248 60 207 4.0 12.0 0.00 0.00 0.00 34 1009.6
20260508173126 60 251 6.0 12.0 0.00 0.00 0.00 35 1009.6
20260508172948 60 259 5.0 12.0 0.00 0.00 0.00 35 1009.6
20260508172826 60 232 5.0 12.0 0.00 0.00 0.00 35 1009.7
20260508172647 60 263 6.0 12.0 0.00 0.00 0.00 34 1009.7
20260508172529 60 261 6.0 12.0 0.00 0.00 0.00 34 1009.7
20260508172412 60 242 8.0 12.0 0.00 0.00 0.00 35 1009.8
20260508172229 60 262 8.0 12.0 0.00 0.00 0.00 36 1009.8
20260508172111 60 235 6.0 11.0 0.00 0.00 0.00 35 1009.8
20260508171953 60 265 1.0 10.0 0.00 0.00 0.00 34 1009.8
20260508171811 59 291 2.0 12.0 0.00 0.00 0.00 34 1009.9
20260508171654 59 288 1.0 12.0 0.00 0.00 0.00 35 1009.9
20260508171537 59 276 1.0 12.0 0.00 0.00 0.00 34 1009.9
20260508171343 59 314 3.0 12.0 0.00 0.00 0.00 33 1009.9
20260508171222 60 304 6.0 12.0 0.00 0.00 0.00 33 1009.9
20260508171104 60 261 8.0 12.0 0.00 0.00 0.00 33 1009.9
20260508170928 60 250 7.0 11.0 0.00 0.00 0.00 34 1009.8
20260508170750 60 318 4.0 10.0 0.00 0.00 0.00 34 1009.9
20260508170630 60 257 3.0 10.0 0.00 0.00 0.00 35 1009.9
20260508170447 60 254 5.0 10.0 0.00 0.00 0.00 34 1009.9
20260508170330 60 265 6.0 10.0 0.00 0.00 0.00 34 1009.9
20260508170213 60 240 6.0 10.0 0.00 0.00 0.00 35 1010.0
20260508170055 60 232 2.0 10.0 0.00 0.00 0.00 37 1010.0
20260508165938 60 235 1.0 11.0 0.00 0.00 0.00 38 1010.1
20260508165820 59 221 1.0 13.0 0.00 0.00 0.00 38 1010.0
20260508165646 59 90 1.0 13.0 0.00 0.00 0.00 39 1010.1
20260508165507 59 252 5.0 13.0 0.00 0.00 0.00 38 1010.2
20260508165346 59 271 5.0 13.0 0.00 0.00 0.00 38 1010.2
20260508165229 59 254 5.0 13.0 0.00 0.00 0.00 38 1010.2
20260508165057 58 217 7.0 13.0 0.00 0.00 0.00 37 1010.2
20260508164917 58 225 5.0 12.0 0.00 0.00 0.00 38 1010.2
20260508164800 58 315 3.0 12.0 0.00 0.00 0.00 37 1010.2
20260508164637 58 18 2.0 12.0 0.00 0.00 0.00 36 1010.2
20260508164519 58 270 7.0 12.0 0.00 0.00 0.00 36 1010.4
20260508164339 59 269 8.0 12.0 0.00 0.00 0.00 36 1010.4
20260508164155 59 272 5.0 10.0 0.00 0.00 0.00 38 1010.4
20260508164033 59 183 5.0 12.0 0.00 0.00 0.00 37 1010.2
20260508163909 58 263 6.0 12.0 0.00 0.00 0.00 39 1010.3
20260508163729 58 255 5.0 12.0 0.00 0.00 0.00 39 1010.4
20260508163612 58 229 4.0 12.0 0.00 0.00 0.00 38 1010.4
20260508163433 58 228 5.0 12.0 0.00 0.00 0.00 37 1010.4
20260508163311 58 270 7.0 12.0 0.00 0.00 0.00 38 1010.4
20260508163152 58 223 6.0 11.0 0.00 0.00 0.00 39 1010.4
20260508163029 58 309 5.0 11.0 0.00 0.00 0.00 39 1010.4
20260508162906 58 245 5.0 10.0 0.00 0.00 0.00 38 1010.4
20260508162744 58 275 6.0 10.0 0.00 0.00 0.00 38 1010.4
20260508162547 58 246 4.0 9.0 0.00 0.00 0.00 40 1010.5
20260508162424 58 240 3.0 7.0 0.00 0.00 0.00 42 1010.4
20260508162306 58 191 4.0 7.0 0.00 0.00 0.00 41 1010.4
20260508162145 58 169 2.0 7.0 0.00 0.00 0.00 41 1010.4
20260508162022 58 223 2.0 7.0 0.00 0.00 0.00 41 1010.5
20260508161902 58 211 2.0 7.0 0.00 0.00 0.00 41 1010.5
20260508161740 58 143 1.0 10.0 0.00 0.00 0.00 41 1010.5
20260508161617 58 208 3.0 10.0 0.00 0.00 0.00 41 1010.6
20260508161459 58 223 5.0 12.0 0.00 0.00 0.00 41 1010.5
20260508161320 57 257 4.0 12.0 0.00 0.00 0.00 42 1010.5
20260508161158 57 246 3.0 12.0 0.00 0.00 0.00 43 1010.5
20260508161035 57 296 7.0 12.0 0.00 0.00 0.00 41 1010.6
20260508160852 57 258 7.0 12.0 0.00 0.00 0.00 39 1010.6
20260508160734 57 243 6.0 12.0 0.00 0.00 0.00 41 1010.6
20260508160551 57 254 4.0 11.0 0.00 0.00 0.00 41 1010.6
20260508160408 57 242 1.0 11.0 0.00 0.00 0.00 41 1010.7
20260508160246 57 217 2.0 11.0 0.00 0.00 0.00 42 1010.8
20260508155945 56 248 5.0 11.0 0.00 0.00 0.00 42 1010.8
20260508155822 56 308 3.0 10.0 0.00 0.00 0.00 43 1010.8
20260508155659 56 240 5.0 10.0 0.00 0.00 0.00 42 1010.9
20260508155536 56 238 5.0 10.0 0.00 0.00 0.00 43 1010.9
20260508155418 56 238 4.0 10.0 0.00 0.00 0.00 43 1010.9
20260508155235 56 180 5.0 10.0 0.00 0.00 0.00 44 1010.9
20260508155051 56 232 4.0 10.0 0.00 0.00 0.00 44 1010.9
20260508154929 56 175 4.0 13.0 0.00 0.00 0.00 43 1010.9
20260508154755 56 245 4.0 13.0 0.00 0.00 0.00 43 1010.9
20260508154633 56 199 5.0 13.0 0.00 0.00 0.00 44 1010.8
20260508154509 56 221 4.0 13.0 0.00 0.00 0.00 44 1010.9
20260508154327 56 252 5.0 13.0 0.00 0.00 0.00 43 1010.9
20260508154208 56 246 5.0 13.0 0.00 0.00 0.00 43 1010.8
20260508154046 56 298 4.0 12.0 0.00 0.00 0.00 43 1010.9
20260508153924 56 300 2.0 12.0 0.00 0.00 0.00 43 1010.9
20260508153801 55 35 6.0 12.0 0.00 0.00 0.00 43 1010.8
20260508153641 55 269 8.0 12.0 0.00 0.00 0.00 43 1010.9
20260508153522 55 312 8.0 12.0 0.00 0.00 0.00 44 1010.9
20260508153338 56 306 7.0 12.0 0.00 0.00 0.00 44 1010.9
20260508153155 56 275 9.0 12.0 0.00 0.00 0.00 43 1010.9
20260508153033 56 263 6.0 11.0 0.00 0.00 0.00 43 1010.9
20260508152914 56 312 4.0 11.0 0.00 0.00 0.00 44 1011.0
20260508152752 56 277 7.0 11.0 0.00 0.00 0.00 43 1011.0
20260508152608 56 249 4.0 11.0 0.00 0.00 0.00 43 1011.0
20260508152450 56 281 2.0 9.0 0.00 0.00 0.00 45 1011.0
20260508152333 56 221 1.0 9.0 0.00 0.00 0.00 45 1011.0
20260508152149 56 248 2.0 10.0 0.00 0.00 0.00 44 1011.0
20260508152006 56 242 5.0 10.0 0.00 0.00 0.00 44 1011.0
20260508151843 56 262 5.0 10.0 0.00 0.00 0.00 45 1011.0
20260508151700 56 169 5.0 10.0 0.00 0.00 0.00 45 1011.0
20260508151542 56 207 3.0 10.0 0.00 0.00 0.00 45 1011.0
20260508151420 56 203 2.0 9.0 0.00 0.00 0.00 46 1011.0
20260508151258 55 192 2.0 9.0 0.00 0.00 0.00 46 1011.0
20260508151135 55 243 3.0 9.0 0.00 0.00 0.00 48 1011.0
20260508150955 55 130 3.0 9.0 0.00 0.00 0.00 48 1011.0
20260508150812 55 133 5.0 9.0 0.00 0.00 0.00 48 1011.0
20260508150630 55 234 4.0 9.0 0.00 0.00 0.00 49 1011.0
20260508150507 55 194 4.0 8.0 0.00 0.00 0.00 49 1011.0
20260508150349 55 274 3.0 8.0 0.00 0.00 0.00 49 1011.0
20260508150232 54 323 3.0 8.0 0.00 0.00 0.00 51 1011.1
20260508150109 54 297 5.0 8.0 0.00 0.00 0.00 50 1011.0
20260508145930 54 303 2.0 8.0 0.00 0.00 0.00 50 1011.1
20260508145807 54 348 4.0 8.0 0.00 0.00 0.00 49 1011.1
20260508145649 54 291 5.0 8.0 0.00 0.00 0.00 49 1011.1
20260508145527 54 290 3.0 4.0 0.00 0.00 0.00 50 1011.1
20260508145405 54 291 1.0 4.0 0.00 0.00 0.00 50 1011.1
20260508145243 54 87 1.0 5.0 0.00 0.00 0.00 50 1011.1
20260508145124 54 80 1.0 5.0 0.00 0.00 0.00 50 1011.1
20260508145002 54 63 0.0 5.0 0.00 0.00 0.00 51 1011.2
20260508144840 54 53 1.0 6.0 0.00 0.00 0.00 50 1011.1
20260508144700 54 360 1.0 6.0 0.00 0.00 0.00 51 1011.2
20260508144542 54 236 3.0 6.0 0.00 0.00 0.00 51 1011.2
20260508144400 54 185 3.0 6.0 0.00 0.00 0.00 51 1011.2
20260508144242 54 170 4.0 6.0 0.00 0.00 0.00 51 1011.2
20260508144039 54 144 4.0 6.0 0.00 0.00 0.00 50 1011.1
20260508143918 54 149 2.0 5.0 0.00 0.00 0.00 50 1011.2
20260508143739 54 180 1.0 4.0 0.00 0.00 0.00 50 1011.2
20260508143617 54 198 1.0 4.0 0.00 0.00 0.00 50 1011.2
20260508143456 54 204 1.0 5.0 0.00 0.00 0.00 51 1011.2
20260508143339 54 205 1.0 5.0 0.00 0.00 0.00 51 1011.2
20260508143206 54 215 1.0 5.0 0.00 0.00 0.00 51 1011.2
20260508143047 54 169 1.0 5.0 0.00 0.00 0.00 51 1011.2
20260508142924 53 166 2.0 5.0 0.00 0.00 0.00 50 1011.3
20260508142807 53 192 3.0 5.0 0.00 0.00 0.00 50 1011.3
20260508142633 53 211 3.0 5.0 0.00 0.00 0.00 52 1011.3
20260508142512 53 180 2.0 4.0 0.00 0.00 0.00 52 1011.3
20260508142352 53 84 1.0 3.0 0.00 0.00 0.00 53 1011.4
20260508142212 53 49 1.0 4.0 0.00 0.00 0.00 52 1011.4
20260508142040 53 28 2.0 4.0 0.00 0.00 0.00 52 1011.4
20260508141905 53 43 1.0 4.0 0.00 0.00 0.00 53 1011.4
20260508141744 53 87 1.0 4.0 0.00 0.00 0.00 53 1011.4
20260508141627 53 61 1.0 4.0 0.00 0.00 0.00 52 1011.4
20260508141448 53 59 2.0 4.0 0.00 0.00 0.00 52 1011.4
20260508141326 53 75 3.0 4.0 0.00 0.00 0.00 52 1011.4
20260508141207 53 67 2.0 4.0 0.00 0.00 0.00 52 1011.4
20260508141048 53 46 1.0 3.0 0.00 0.00 0.00 52 1011.4
20260508140915 53 46 2.0 3.0 0.00 0.00 0.00 51 1011.5
20260508140732 53 237 0.0 2.0 0.00 0.00 0.00 52 1011.5
20260508140615 53 279 0.0 2.0 0.00 0.00 0.00 52 1011.6
20260508140436 52 279 0.0 2.0 0.00 0.00 0.00 53 1011.5
20260508140236 52 275 0.0 2.0 0.00 0.00 0.00 54 1011.6
20260508140118 52 275 1.0 3.0 0.00 0.00 0.00 55 1011.6
20260508140000 52 276 0.0 3.0 0.00 0.00 0.00 55 1011.6
20260508135818 52 250 0.0 4.0 0.00 0.00 0.00 55 1011.6
20260508135701 52 269 1.0 4.0 0.00 0.00 0.00 56 1011.6
20260508135540 52 269 0.0 4.0 0.00 0.00 0.00 56 1011.6
20260508135359 52 269 1.0 4.0 0.00 0.00 0.00 56 1011.6
20260508135237 52 270 2.0 4.0 0.00 0.00 0.00 57 1011.6
20260508135118 52 266 2.0 4.0 0.00 0.00 0.00 59 1011.7
20260508134939 52 204 0.0 3.0 0.00 0.00 0.00 59 1011.7
20260508134821 52 189 1.0 4.0 0.00 0.00 0.00 60 1011.7
20260508134659 52 217 1.0 4.0 0.00 0.00 0.00 60 1011.6
20260508134542 52 269 1.0 4.0 0.00 0.00 0.00 60 1011.6
20260508134423 52 229 1.0 4.0 0.00 0.00 0.00 61 1011.6
20260508134302 52 227 2.0 4.0 0.00 0.00 0.00 62 1011.7
20260508134145 52 208 2.0 4.0 0.00 0.00 0.00 62 1011.7
20260508134027 52 208 2.0 4.0 0.00 0.00 0.00 63 1011.7
20260508133855 52 248 2.0 3.0 0.00 0.00 0.00 64 1011.7
20260508133738 52 228 1.0 3.0 0.00 0.00 0.00 65 1011.7
20260508133618 52 254 0.0 3.0 0.00 0.00 0.00 66 1011.7
20260508133501 51 205 0.0 3.0 0.00 0.00 0.00 66 1011.8
20260508133308 51 207 0.0 3.0 0.00 0.00 0.00 66 1011.8
20260508133128 51 199 1.0 3.0 0.00 0.00 0.00 67 1011.7
20260508132953 51 164 0.0 2.0 0.00 0.00 0.00 67 1011.7
20260508132835 51 165 0.0 3.0 0.00 0.00 0.00 68 1011.8
20260508132657 51 164 0.0 4.0 0.00 0.00 0.00 69 1011.7
20260508132537 51 164 1.0 4.0 0.00 0.00 0.00 69 1011.7
20260508132416 51 207 0.0 4.0 0.00 0.00 0.00 70 1011.8
20260508132254 50 209 0.0 4.0 0.00 0.00 0.00 70 1011.8
20260508132122 50 208 1.0 4.0 0.00 0.00 0.00 71 1011.8
20260508132000 50 209 2.0 4.0 0.00 0.00 0.00 71 1011.8
20260508131843 50 209 2.0 4.0 0.00 0.00 0.00 72 1011.7
20260508131722 50 140 1.0 4.0 0.00 0.00 0.00 72 1011.7
20260508131526 50 173 2.0 4.0 0.00 0.00 0.00 72 1011.7
20260508131405 50 165 1.0 4.0 0.00 0.00 0.00 73 1011.8
20260508131224 50 200 0.0 3.0 0.00 0.00 0.00 73 1011.8
20260508131049 50 190 1.0 3.0 0.00 0.00 0.00 74 1011.7
20260508130911 50 180 1.0 3.0 0.00 0.00 0.00 74 1011.7
20260508130749 50 180 1.0 3.0 0.00 0.00 0.00 75 1011.7
20260508130632 50 211 1.0 3.0 0.00 0.00 0.00 76 1011.7
20260508130515 49 194 1.0 3.0 0.00 0.00 0.00 76 1011.7
20260508130339 49 214 1.0 3.0 0.00 0.00 0.00 76 1011.7
20260508130219 49 174 1.0 3.0 0.00 0.00 0.00 77 1011.7
20260508125945 49 205 0.0 3.0 0.00 0.00 0.00 77 1011.7
20260508125828 49 204 1.0 3.0 0.00 0.00 0.00 78 1011.8
20260508125649 49 204 2.0 3.0 0.00 0.00 0.00 78 1011.7
20260508125531 49 237 0.0 3.0 0.00 0.00 0.00 78 1011.7
20260508125410 49 206 1.0 3.0 0.00 0.00 0.00 78 1011.7
20260508125214 49 221 1.0 3.0 0.00 0.00 0.00 78 1011.7
20260508125052 49 217 1.0 2.0 0.00 0.00 0.00 79 1011.7
20260508124917 49 213 1.0 2.0 0.00 0.00 0.00 79 1011.7
20260508124754 48 213 0.0 2.0 0.00 0.00 0.00 80 1011.7
20260508124636 48 182 0.0 1.0 0.00 0.00 0.00 80 1011.7
20260508124517 48 182 0.0 1.0 0.00 0.00 0.00 80 1011.7
20260508124355 48 182 0.0 1.0 0.00 0.00 0.00 80 1011.7
20260508124236 47 182 0.0 1.0 0.00 0.00 0.00 80 1011.7
20260508124118 47 182 0.0 1.0 0.00 0.00 0.00 80 1011.7
20260508123959 47 182 0.0 1.0 0.00 0.00 0.00 80 1011.5
20260508123837 47 182 0.0 1.0 0.00 0.00 0.00 80 1011.6
20260508123715 47 182 0.0 1.0 0.00 0.00 0.00 80 1011.6
20260508123537 47 182 0.0 1.0 0.00 0.00 0.00 81 1011.6
20260508123402 47 186 0.0 1.0 0.00 0.00 0.00 80 1011.6
20260508123219 46 186 0.0 1.0 0.00 0.00 0.00 81 1011.5
20260508123057 46 186 0.0 1.0 0.00 0.00 0.00 81 1011.6
20260508122935 46 186 0.0 1.0 0.00 0.00 0.00 81 1011.5
20260508122816 46 186 0.0 1.0 0.00 0.00 0.00 81 1011.5
20260508122654 46 186 0.0 1.0 0.00 0.00 0.00 81 1011.4
20260508122537 46 186 0.0 1.0 0.00 0.00 0.00 81 1011.4
20260508122414 46 186 0.0 1.0 0.00 0.00 0.00 81 1011.4
20260508122256 46 186 0.0 1.0 0.00 0.00 0.00 81 1011.4
20260508122134 46 186 0.0 1.0 0.00 0.00 0.00 81 1011.4
20260508122012 46 186 0.0 1.0 0.00 0.00 0.00 81 1011.4
20260508121850 45 186 0.0 1.0 0.00 0.00 0.00 81 1011.4
20260508121707 45 186 0.0 1.0 0.00 0.00 0.00 81 1011.4
20260508121527 45 186 0.0 1.0 0.00 0.00 0.00 81 1011.3
20260508121344 45 186 0.0 1.0 0.00 0.00 0.00 81 1011.3
20260508121201 45 186 0.0 0.0 0.00 0.00 0.00 81 1011.3
20260508121039 45 186 0.0 1.0 0.00 0.00 0.00 81 1011.3
20260508120921 45 186 0.0 1.0 0.00 0.00 0.00 81 1011.3
20260508120802 44 186 0.0 1.0 0.00 0.00 0.00 81 1011.3
20260508120640 44 186 0.0 1.0 0.00 0.00 0.00 81 1011.3
20260508120518 44 186 0.0 1.0 0.00 0.00 0.00 81 1011.3
20260508120400 44 186 0.0 1.0 0.00 0.00 0.00 81 1011.3
20260508120237 44 186 0.0 1.0 0.00 0.00 0.00 81 1011.3
20260508120115 43 186 0.0 0.0 0.00 0.00 0.00 81 1011.3
20260508115953 43 186 0.0 0.0 0.00 0.00 0.00 81 1011.3
20260508115831 43 186 0.0 0.0 0.00 0.00 0.00 81 1011.3
20260508115712 43 186 0.0 0.0 0.00 0.00 0.00 81 1011.3
20260508115550 43 186 0.0 0.0 0.00 0.00 0.00 81 1011.3
20260508115428 43 186 0.0 0.0 0.00 0.00 0.00 81 1011.3
20260508115306 42 186 0.0 0.0 0.00 0.00 0.00 81 1011.3
20260508115148 42 186 0.0 0.0 0.00 0.00 0.00 81 1011.3
20260508115025 42 186 0.0 0.0 0.00 0.00 0.00 81 1011.3
20260508114902 42 186 0.0 0.0 0.00 0.00 0.00 81 1011.3
20260508114745 42 186 0.0 0.0 0.00 0.00 0.00 81 1011.3
20260508114626 41 186 0.0 0.0 0.00 0.00 0.00 81 1011.2
20260508114502 41 186 0.0 0.0 0.00 0.00 0.00 81 1011.2
20260508114318 41 186 0.0 0.0 0.00 0.00 0.00 81 1011.2
20260508114156 41 186 0.0 1.0 0.00 0.00 0.00 81 1011.2
20260508114012 41 186 0.0 1.0 0.00 0.00 0.00 81 1011.2
20260508113854 41 186 0.0 1.0 0.00 0.00 0.00 81 1011.2
20260508113731 41 186 0.0 1.0 0.00 0.00 0.00 81 1011.1
20260508113548 40 186 0.0 1.0 0.00 0.00 0.00 81 1011.1
20260508113430 40 186 0.0 1.0 0.00 0.00 0.00 81 1011.1
20260508113312 40 186 0.0 1.0 0.00 0.00 0.00 81 1011.1
20260508113149 40 186 0.0 0.0 0.00 0.00 0.00 81 1011.1
20260508113031 40 186 0.0 0.0 0.00 0.00 0.00 81 1011.1
20260508112909 40 186 0.0 0.0 0.00 0.00 0.00 81 1011.1
20260508112751 40 186 0.0 0.0 0.00 0.00 0.00 81 1011.0
20260508112629 40 186 0.0 0.0 0.00 0.00 0.00 81 1011.0
20260508112507 40 186 0.0 0.0 0.00 0.00 0.00 81 1011.0
20260508112345 40 186 0.0 0.0 0.00 0.00 0.00 81 1011.0
20260508112223 40 186 0.0 0.0 0.00 0.00 0.00 81 1010.9
20260508112104 40 186 0.0 0.0 0.00 0.00 0.00 81 1010.9
20260508111921 40 186 0.0 0.0 0.00 0.00 0.00 81 1010.9
20260508111758 40 186 0.0 0.0 0.00 0.00 0.00 81 1010.9
20260508111641 39 186 0.0 0.0 0.00 0.00 0.00 81 1010.8
20260508111523 39 186 0.0 0.0 0.00 0.00 0.00 81 1010.9
20260508111401 39 186 0.0 0.0 0.00 0.00 0.00 81 1010.8
20260508111239 39 186 0.0 0.0 0.00 0.00 0.00 81 1010.8
20260508111117 39 186 0.0 0.0 0.00 0.00 0.00 82 1010.7
20260508110937 39 186 0.0 0.0 0.00 0.00 0.00 82 1010.7
20260508110814 39 186 0.0 0.0 0.00 0.00 0.00 81 1010.7
20260508110652 39 186 0.0 0.0 0.00 0.00 0.00 81 1010.7
20260508110531 39 186 0.0 0.0 0.00 0.00 0.00 82 1010.7
20260508110407 39 186 0.0 0.0 0.00 0.00 0.00 82 1010.7
20260508110249 38 186 0.0 0.0 0.00 0.00 0.00 82 1010.7
20260508110127 38 186 0.0 0.0 0.00 0.00 0.00 82 1010.7
20260508110005 38 186 0.0 0.0 0.00 0.00 0.00 82 1010.7
20260508105843 38 186 0.0 0.0 0.00 0.00 0.00 82 1010.7
20260508105725 38 186 0.0 0.0 0.00 0.00 0.00 82 1010.7
20260508105542 38 186 0.0 0.0 0.00 0.00 0.00 82 1010.7
20260508105419 38 186 0.0 0.0 0.00 0.00 0.00 82 1010.7
20260508105256 38 186 0.0 0.0 0.00 0.00 0.00 82 1010.7
20260508105117 38 186 0.0 0.0 0.00 0.00 0.00 82 1010.7
20260508104955 38 186 0.0 0.0 0.00 0.00 0.00 82 1010.7
20260508104833 38 186 0.0 0.0 0.00 0.00 0.00 82 1010.7
20260508104711 38 186 0.0 0.0 0.00 0.00 0.00 82 1010.7
20260508104515 38 186 0.0 0.0 0.00 0.00 0.00 82 1010.7
20260508104356 38 186 0.0 0.0 0.00 0.00 0.00 82 1010.7
20260508104233 38 186 0.0 0.0 0.00 0.00 0.00 82 1010.7
20260508104116 38 186 0.0 0.0 0.00 0.00 0.00 82 1010.6
20260508103944 38 186 0.0 0.0 0.00 0.00 0.00 82 1010.6
20260508103802 38 186 0.0 0.0 0.00 0.00 0.00 82 1010.6
20260508103641 38 186 0.0 0.0 0.00 0.00 0.00 82 1010.7
20260508103520 38 186 0.0 0.0 0.00 0.00 0.00 82 1010.6
20260508103358 38 186 0.0 0.0 0.00 0.00 0.00 82 1010.6
20260508103240 38 186 0.0 0.0 0.00 0.00 0.00 82 1010.6
20260508103122 38 186 0.0 0.0 0.00 0.00 0.00 82 1010.6
20260508103000 38 186 0.0 0.0 0.00 0.00 0.00 82 1010.5
20260508102843 38 186 0.0 0.0 0.00 0.00 0.00 82 1010.5
20260508102709 38 186 0.0 0.0 0.00 0.00 0.00 82 1010.5
20260508102547 38 186 0.0 0.0 0.00 0.00 0.00 82 1010.5
20260508102428 38 186 0.0 0.0 0.00 0.00 0.00 82 1010.6
20260508102308 38 186 0.0 0.0 0.00 0.00 0.00 82 1010.5
20260508102130 38 186 0.0 0.0 0.00 0.00 0.00 82 1010.6
20260508102011 38 186 0.0 0.0 0.00 0.00 0.00 82 1010.6
20260508101851 38 186 0.0 0.0 0.00 0.00 0.00 82 1010.6
20260508101729 38 186 0.0 0.0 0.00 0.00 0.00 82 1010.6
20260508101557 38 186 0.0 0.0 0.00 0.00 0.00 82 1010.6
20260508101418 39 186 0.0 0.0 0.00 0.00 0.00 82 1010.6
20260508101256 39 186 0.0 0.0 0.00 0.00 0.00 82 1010.6
20260508101139 39 186 0.0 0.0 0.00 0.00 0.00 82 1010.6
20260508101022 39 186 0.0 0.0 0.00 0.00 0.00 82 1010.6
20260508100901 39 186 0.0 0.0 0.00 0.00 0.00 82 1010.6
20260508100740 39 186 0.0 0.0 0.00 0.00 0.00 81 1010.6
20260508100619 39 186 0.0 0.0 0.00 0.00 0.00 81 1010.6
20260508100447 39 186 0.0 0.0 0.00 0.00 0.00 81 1010.6
20260508100325 39 186 0.0 0.0 0.00 0.00 0.00 81 1010.6
20260508100205 39 186 0.0 0.0 0.00 0.00 0.00 81 1010.7
20260508100043 39 186 0.0 0.0 0.00 0.00 0.00 81 1010.7
20260508095921 39 186 0.0 0.0 0.00 0.00 0.00 81 1010.7
20260508095804 39 186 0.0 0.0 0.00 0.00 0.00 81 1010.7
20260508095626 39 186 0.0 0.0 0.00 0.00 0.00 81 1010.7
20260508095509 39 186 0.0 0.0 0.00 0.00 0.00 82 1010.7
20260508095347 39 186 0.0 0.0 0.00 0.00 0.00 82 1010.7
20260508095230 39 186 0.0 0.0 0.00 0.00 0.00 82 1010.7
20260508095047 39 186 0.0 0.0 0.00 0.00 0.00 81 1010.7
20260508094930 39 186 0.0 0.0 0.00 0.00 0.00 81 1010.7
20260508094808 39 186 0.0 0.0 0.00 0.00 0.00 81 1010.7
20260508094651 39 186 0.0 0.0 0.00 0.00 0.00 81 1010.7
20260508094508 39 186 0.0 0.0 0.00 0.00 0.00 81 1010.7
20260508094351 39 186 0.0 0.0 0.00 0.00 0.00 81 1010.7
20260508094213 39 186 0.0 0.0 0.00 0.00 0.00 81 1010.7
20260508094055 39 186 0.0 0.0 0.00 0.00 0.00 81 1010.7
20260508093919 39 186 0.0 0.0 0.00 0.00 0.00 81 1010.6
20260508093736 39 186 0.0 0.0 0.00 0.00 0.00 81 1010.6
20260508093615 40 186 0.0 0.0 0.00 0.00 0.00 81 1010.6
20260508093421 40 186 0.0 0.0 0.00 0.00 0.00 81 1010.6
20260508093259 40 186 0.0 0.0 0.00 0.00 0.00 81 1010.6
20260508093142 40 186 0.0 0.0 0.00 0.00 0.00 81 1010.6
20260508093000 40 186 0.0 0.0 0.00 0.00 0.00 81 1010.7
20260508092842 40 186 0.0 0.0 0.00 0.00 0.00 81 1010.7
20260508092658 40 186 0.0 0.0 0.00 0.00 0.00 81 1010.6
20260508092518 40 186 0.0 0.0 0.00 0.00 0.00 81 1010.6
20260508092358 40 186 0.0 0.0 0.00 0.00 0.00 81 1010.6
20260508092236 40 186 0.0 0.0 0.00 0.00 0.00 81 1010.6
20260508092119 40 186 0.0 0.0 0.00 0.00 0.00 81 1010.6
20260508091957 40 186 0.0 0.0 0.00 0.00 0.00 81 1010.6
20260508091841 40 186 0.0 0.0 0.00 0.00 0.00 81 1010.7
20260508091658 40 186 0.0 0.0 0.00 0.00 0.00 81 1010.6
20260508091539 40 186 0.0 0.0 0.00 0.00 0.00 81 1010.7
20260508091417 40 186 0.0 0.0 0.00 0.00 0.00 81 1010.7
20260508091242 41 186 0.0 0.0 0.00 0.00 0.00 81 1010.7
20260508091119 41 186 0.0 0.0 0.00 0.00 0.00 81 1010.7
20260508090939 41 186 0.0 0.0 0.00 0.00 0.00 81 1010.7
20260508090819 41 186 0.0 0.0 0.00 0.00 0.00 81 1010.7
20260508090657 41 186 0.0 0.0 0.00 0.00 0.00 81 1010.7
20260508090534 41 186 0.0 0.0 0.00 0.00 0.00 81 1010.7
20260508090340 41 186 0.0 0.0 0.00 0.00 0.00 81 1010.8
20260508090217 41 186 0.0 0.0 0.00 0.00 0.00 81 1010.8
20260508090057 41 186 0.0 0.0 0.00 0.00 0.00 81 1010.8
20260508085940 41 186 0.0 0.0 0.00 0.00 0.00 81 1010.8
20260508085801 41 186 0.0 0.0 0.00 0.00 0.00 81 1010.8
20260508085638 41 186 0.0 0.0 0.00 0.00 0.00 81 1010.8
20260508085519 41 186 0.0 0.0 0.00 0.00 0.00 81 1010.8
20260508085400 41 186 0.0 0.0 0.00 0.00 0.00 81 1010.8
20260508085228 41 186 0.0 0.0 0.00 0.00 0.00 81 1010.8
20260508085111 41 186 0.0 0.0 0.00 0.00 0.00 81 1010.8
20260508084954 41 186 0.0 0.0 0.00 0.00 0.00 81 1010.8
20260508084811 41 186 0.0 0.0 0.00 0.00 0.00 81 1010.8
20260508084649 41 186 0.0 0.0 0.00 0.00 0.00 81 1010.8
20260508084530 41 186 0.0 0.0 0.00 0.00 0.00 81 1010.8
20260508084352 41 186 0.0 0.0 0.00 0.00 0.00 81 1010.8
20260508084209 41 186 0.0 0.0 0.00 0.00 0.00 81 1010.8
20260508084046 41 186 0.0 0.0 0.00 0.00 0.00 81 1010.8
20260508083928 42 186 0.0 0.0 0.00 0.00 0.00 81 1010.8
20260508083805 42 186 0.0 0.0 0.00 0.00 0.00 81 1010.8
20260508083643 42 186 0.0 0.0 0.00 0.00 0.00 81 1010.7
20260508083521 42 186 0.0 0.0 0.00 0.00 0.00 81 1010.7
20260508083347 42 186 0.0 0.0 0.00 0.00 0.00 81 1010.7
20260508083225 42 186 0.0 0.0 0.00 0.00 0.00 81 1010.7
20260508083103 42 186 0.0 0.0 0.00 0.00 0.00 81 1010.8
20260508082941 42 186 0.0 0.0 0.00 0.00 0.00 81 1010.8
20260508082823 42 186 0.0 0.0 0.00 0.00 0.00 81 1010.8
20260508082703 42 186 0.0 0.0 0.00 0.00 0.00 81 1010.8
20260508082541 42 186 0.0 0.0 0.00 0.00 0.00 81 1010.8
20260508082419 42 186 0.0 0.0 0.00 0.00 0.00 81 1010.8
20260508082257 42 186 0.0 0.0 0.00 0.00 0.00 81 1010.8
20260508082137 42 186 0.0 0.0 0.00 0.00 0.00 81 1010.8
20260508082015 42 186 0.0 0.0 0.00 0.00 0.00 80 1010.8
20260508081832 42 186 0.0 0.0 0.00 0.00 0.00 80 1010.8
20260508081710 42 186 0.0 0.0 0.00 0.00 0.00 80 1010.8
20260508081536 42 186 0.0 0.0 0.00 0.00 0.00 80 1010.8
20260508081414 42 186 0.0 0.0 0.00 0.00 0.00 80 1010.8
20260508081256 42 186 0.0 0.0 0.00 0.00 0.00 80 1010.8
20260508081138 42 186 0.0 0.0 0.00 0.00 0.00 81 1010.8
20260508081019 42 186 0.0 0.0 0.00 0.00 0.00 81 1010.9
20260508080857 42 186 0.0 0.0 0.00 0.00 0.00 81 1010.9
20260508080713 42 186 0.0 0.0 0.00 0.00 0.00 81 1010.9
20260508080530 42 186 0.0 0.0 0.00 0.00 0.00 81 1010.9
20260508080411 42 186 0.0 0.0 0.00 0.00 0.00 80 1010.9
20260508080206 42 186 0.0 0.0 0.00 0.00 0.00 80 1010.9
20260508080047 42 186 0.0 0.0 0.00 0.00 0.00 80 1010.9
20260508075929 42 186 0.0 0.0 0.00 0.00 0.00 80 1010.9
20260508075807 42 186 0.0 0.0 0.00 0.00 0.00 80 1010.9
20260508075649 42 186 0.0 0.0 0.00 0.00 0.00 80 1010.9
20260508075527 42 186 0.0 0.0 0.00 0.00 0.00 80 1010.8
20260508075405 42 186 0.0 0.0 0.00 0.00 0.00 80 1010.8
20260508075242 43 186 0.0 0.0 0.00 0.00 0.00 80 1010.9
20260508075124 43 186 0.0 0.0 0.00 0.00 0.00 80 1010.8
20260508074941 43 186 0.0 0.0 0.00 0.00 0.00 80 1010.8
20260508074818 43 186 0.0 0.0 0.00 0.00 0.00 80 1010.8
20260508074640 43 186 0.0 0.0 0.00 0.00 0.00 80 1010.9
20260508074520 43 186 0.0 0.0 0.00 0.00 0.00 80 1010.9
20260508074359 43 186 0.0 0.0 0.00 0.00 0.00 80 1010.9
20260508074236 43 186 0.0 0.0 0.00 0.00 0.00 80 1010.9
20260508074031 43 186 0.0 0.0 0.00 0.00 0.00 80 1010.9
20260508073909 43 186 0.0 0.0 0.00 0.00 0.00 80 1010.9
20260508073751 43 186 0.0 0.0 0.00 0.00 0.00 80 1010.8
20260508073629 43 186 0.0 0.0 0.00 0.00 0.00 80 1010.9
20260508073507 43 186 0.0 0.0 0.00 0.00 0.00 80 1010.9
20260508073324 43 186 0.0 0.0 0.00 0.00 0.00 80 1010.9
20260508073206 43 186 0.0 0.0 0.00 0.00 0.00 79 1010.9
20260508073023 43 186 0.0 0.0 0.00 0.00 0.00 79 1011.0
20260508072900 43 186 0.0 0.0 0.00 0.00 0.00 79 1011.0
20260508072738 44 186 0.0 0.0 0.00 0.00 0.00 79 1011.0
20260508072620 44 186 0.0 0.0 0.00 0.00 0.00 79 1011.0
20260508072436 44 186 0.0 0.0 0.00 0.00 0.00 79 1011.0
20260508072314 44 186 0.0 0.0 0.00 0.00 0.00 79 1011.0
20260508072131 44 186 0.0 0.0 0.00 0.00 0.00 79 1010.9
20260508072008 44 186 0.0 0.0 0.00 0.00 0.00 79 1010.9
20260508071850 44 186 0.0 0.0 0.00 0.00 0.00 79 1010.9
20260508071728 44 186 0.0 0.0 0.00 0.00 0.00 79 1010.8
20260508071545 44 186 0.0 0.0 0.00 0.00 0.00 79 1010.8
20260508071423 44 186 0.0 0.0 0.00 0.00 0.00 79 1010.9
20260508071304 44 185 0.0 0.0 0.00 0.00 0.00 79 1010.9
20260508071142 44 185 0.0 1.0 0.00 0.00 0.00 79 1010.9
20260508071021 44 185 0.0 1.0 0.00 0.00 0.00 79 1010.9
20260508070858 44 185 0.0 1.0 0.00 0.00 0.00 79 1010.8
20260508070740 44 185 0.0 1.0 0.00 0.00 0.00 79 1010.8
20260508070618 44 185 0.0 1.0 0.00 0.00 0.00 79 1010.8
20260508070456 45 193 0.0 1.0 0.00 0.00 0.00 79 1010.8
20260508070334 45 196 0.0 1.0 0.00 0.00 0.00 79 1010.9
20260508070212 45 196 0.0 0.0 0.00 0.00 0.00 79 1011.0
20260508070033 45 196 0.0 0.0 0.00 0.00 0.00 79 1011.0
20260508065911 45 196 0.0 0.0 0.00 0.00 0.00 79 1011.0
20260508065749 45 196 0.0 0.0 0.00 0.00 0.00 79 1011.1
20260508065627 45 196 0.0 0.0 0.00 0.00 0.00 78 1011.1
20260508065509 45 196 0.0 0.0 0.00 0.00 0.00 78 1011.1
20260508065347 45 196 0.0 0.0 0.00 0.00 0.00 79 1011.1
20260508065225 45 196 0.0 0.0 0.00 0.00 0.00 78 1011.1
20260508065103 45 196 0.0 0.0 0.00 0.00 0.00 78 1011.1
20260508064945 45 196 0.0 0.0 0.00 0.00 0.00 78 1011.1
20260508064823 45 196 0.0 0.0 0.00 0.00 0.00 78 1011.1
20260508064701 45 196 0.0 0.0 0.00 0.00 0.00 78 1011.1
20260508064539 45 196 0.0 0.0 0.00 0.00 0.00 78 1011.1
20260508064416 45 196 0.0 0.0 0.00 0.00 0.00 78 1011.1
20260508064259 45 196 0.0 0.0 0.00 0.00 0.00 78 1011.2
20260508064137 45 196 0.0 0.0 0.00 0.00 0.00 78 1011.2
20260508064016 45 196 0.0 0.0 0.00 0.00 0.00 78 1011.2
20260508063859 45 196 0.0 0.0 0.00 0.00 0.00 78 1011.2
20260508063728 45 196 0.0 0.0 0.00 0.00 0.00 78 1011.2
20260508063550 45 196 0.0 0.0 0.00 0.00 0.00 78 1011.2
20260508063428 45 196 0.0 0.0 0.00 0.00 0.00 77 1011.2
20260508063308 45 196 0.0 0.0 0.00 0.00 0.00 77 1011.2
20260508063130 45 196 0.0 0.0 0.00 0.00 0.00 77 1011.2
20260508063008 45 196 0.0 0.0 0.00 0.00 0.00 77 1011.2
20260508062848 45 196 0.0 0.0 0.00 0.00 0.00 77 1011.2
20260508062726 45 196 0.0 0.0 0.00 0.00 0.00 77 1011.2
20260508062533 45 196 0.0 0.0 0.00 0.00 0.00 77 1011.2
20260508062411 45 196 0.0 0.0 0.00 0.00 0.00 77 1011.1
20260508062253 45 196 0.0 0.0 0.00 0.00 0.00 77 1011.2
20260508062132 45 196 0.0 0.0 0.00 0.00 0.00 77 1011.1
20260508061958 45 196 0.0 0.0 0.00 0.00 0.00 77 1011.2
20260508061836 45 196 0.0 0.0 0.00 0.00 0.00 77 1011.1
20260508061716 45 196 0.0 0.0 0.00 0.00 0.00 77 1011.2
20260508061533 45 196 0.0 0.0 0.00 0.00 0.00 77 1011.1
20260508061401 45 196 0.0 0.0 0.00 0.00 0.00 77 1011.1
20260508061218 45 196 0.0 0.0 0.00 0.00 0.00 76 1011.1
20260508061057 45 196 0.0 0.0 0.00 0.00 0.00 76 1011.1
20260508060935 45 196 0.0 0.0 0.00 0.00 0.00 76 1011.1
20260508060818 45 196 0.0 0.0 0.00 0.00 0.00 76 1011.1
20260508060702 45 196 0.0 0.0 0.00 0.00 0.00 76 1011.1
20260508060542 45 196 0.0 0.0 0.00 0.00 0.00 76 1011.1
20260508060404 45 196 0.0 0.0 0.00 0.00 0.00 76 1011.1
20260508060242 45 196 0.0 0.0 0.00 0.00 0.00 76 1011.1
20260508060124 45 197 0.0 0.0 0.00 0.00 0.00 76 1011.2
20260508060038 45 240 0.0 0.0 0.00 0.00 0.00 76 1011.2
20260508055924 45 240 0.0 0.0 0.00 0.00 0.00 76 1011.2
20260508055828 45 240 0.0 0.0 0.00 0.00 0.00 76 1011.2
20260508055752 45 245 0.0 0.0 0.00 0.00 0.00 76 1011.2
20260508055633 45 245 0.0 0.0 0.00 0.00 0.00 76 1011.2
20260508055521 45 245 0.0 0.0 0.00 0.00 0.00 76 1011.2
20260508055445 45 245 0.0 0.0 0.00 0.00 0.00 76 1011.2
20260508055348 45 245 0.0 0.0 0.00 0.00 0.00 76 1011.2
20260508055250 45 245 0.0 0.0 0.00 0.00 0.00 76 1011.3
20260508055133 45 245 0.0 0.0 0.00 0.00 0.00 76 1011.3
20260508055056 45 245 0.0 0.0 0.00 0.00 0.00 76 1011.3
20260508054938 45 245 0.0 0.0 0.00 0.00 0.00 76 1011.3
20260508054821 45 245 0.0 0.0 0.00 0.00 0.00 76 1011.3
20260508054729 45 245 0.0 0.0 0.00 0.00 0.00 76 1011.3
20260508054652 45 245 0.0 0.0 0.00 0.00 0.00 76 1011.3
20260508054532 45 245 0.0 0.0 0.00 0.00 0.00 76 1011.3
20260508054434 45 246 0.0 0.0 0.00 0.00 0.00 76 1011.3
20260508054338 45 246 0.0 0.0 0.00 0.00 0.00 76 1011.3
20260508054240 45 246 0.0 0.0 0.00 0.00 0.00 76 1011.3
20260508054128 45 247 0.0 0.0 0.00 0.00 0.00 76 1011.3
20260508054030 45 246 0.0 0.0 0.00 0.00 0.00 76 1011.4
20260508053933 45 246 0.0 0.0 0.00 0.00 0.00 76 1011.4
20260508053835 45 246 0.0 0.0 0.00 0.00 0.00 76 1011.3
20260508053738 45 246 0.0 0.0 0.00 0.00 0.00 76 1011.3
20260508053620 45 246 0.0 0.0 0.00 0.00 0.00 76 1011.3
20260508053527 45 246 0.0 0.0 0.00 0.00 0.00 76 1011.3
20260508053429 45 246 0.0 0.0 0.00 0.00 0.00 76 1011.4
20260508053352 45 246 0.0 0.0 0.00 0.00 0.00 76 1011.4
20260508053235 45 246 0.0 0.0 0.00 0.00 0.00 76 1011.4
20260508053157 45 247 0.0 0.0 0.00 0.00 0.00 76 1011.4
20260508053040 45 246 0.0 0.0 0.00 0.00 0.00 76 1011.4
20260508052924 45 246 0.0 0.0 0.00 0.00 0.00 76 1011.3
20260508052831 45 246 0.0 0.0 0.00 0.00 0.00 76 1011.3
20260508052753 45 246 0.0 0.0 0.00 0.00 0.00 76 1011.4
20260508052636 45 246 0.0 0.0 0.00 0.00 0.00 76 1011.4
20260508052559 45 246 0.0 0.0 0.00 0.00 0.00 76 1011.3
20260508052421 45 246 0.0 0.0 0.00 0.00 0.00 76 1011.3
20260508052323 45 246 0.0 0.0 0.00 0.00 0.00 75 1011.3
20260508052227 45 247 0.0 0.0 0.00 0.00 0.00 75 1011.3
20260508052148 45 246 0.0 0.0 0.00 0.00 0.00 75 1011.3
20260508052034 45 247 0.0 0.0 0.00 0.00 0.00 75 1011.3
20260508051936 45 246 0.0 0.0 0.00 0.00 0.00 75 1011.3
20260508051840 45 246 0.0 0.0 0.00 0.00 0.00 75 1011.3
20260508051723 45 246 0.0 0.0 0.00 0.00 0.00 75 1011.3
20260508051647 45 246 0.0 0.0 0.00 0.00 0.00 75 1011.3
20260508051550 45 246 0.0 0.0 0.00 0.00 0.00 74 1011.3
20260508051452 45 246 0.0 0.0 0.00 0.00 0.00 74 1011.3
20260508051339 45 246 0.0 0.0 0.00 0.00 0.00 74 1011.3
20260508051241 45 246 0.0 0.0 0.00 0.00 0.00 73 1011.3
20260508051124 45 246 0.0 0.0 0.00 0.00 0.00 73 1011.3
20260508051028 45 246 0.0 0.0 0.00 0.00 0.00 73 1011.3
20260508050931 45 246 0.0 0.0 0.00 0.00 0.00 73 1011.3
20260508050834 46 234 0.0 0.0 0.00 0.00 0.00 73 1011.3
20260508050736 46 234 0.0 0.0 0.00 0.00 0.00 73 1011.3
20260508050624 46 217 0.0 0.0 0.00 0.00 0.00 73 1011.3
20260508050526 46 217 0.0 0.0 0.00 0.00 0.00 74 1011.2
20260508050429 46 217 0.0 0.0 0.00 0.00 0.00 73 1011.3
20260508050331 46 217 0.0 0.0 0.00 0.00 0.00 74 1011.2
20260508050235 46 217 0.0 0.0 0.00 0.00 0.00 74 1011.2
20260508050138 46 217 0.0 0.0 0.00 0.00 0.00 73 1011.2
20260508050026 46 217 0.0 0.0 0.00 0.00 0.00 73 1011.2
20260508045929 46 217 0.0 0.0 0.00 0.00 0.00 73 1011.2
20260508045832 46 217 0.0 0.0 0.00 0.00 0.00 73 1011.2
20260508045736 46 217 0.0 0.0 0.00 0.00 0.00 73 1011.2
20260508045640 46 217 0.0 0.0 0.00 0.00 0.00 73 1011.2
20260508045524 46 217 0.0 0.0 0.00 0.00 0.00 73 1011.2
20260508045431 46 217 0.0 0.0 0.00 0.00 0.00 73 1011.2
20260508045333 46 216 0.0 0.0 0.00 0.00 0.00 73 1011.2
20260508045235 46 215 0.0 0.0 0.00 0.00 0.00 73 1011.1
20260508045137 46 215 0.0 0.0 0.00 0.00 0.00 73 1011.1
20260508045020 46 215 0.0 0.0 0.00 0.00 0.00 73 1011.1
20260508044924 46 215 0.0 0.0 0.00 0.00 0.00 73 1011.1
20260508044832 46 215 0.0 0.0 0.00 0.00 0.00 73 1011.1
20260508044756 46 215 0.0 0.0 0.00 0.00 0.00 72 1011.1
20260508044639 46 215 0.0 0.0 0.00 0.00 0.00 72 1011.1
20260508044521 46 215 0.0 0.0 0.00 0.00 0.00 72 1011.0
20260508044423 46 215 0.0 0.0 0.00 0.00 0.00 72 1011.1
20260508044326 46 213 0.0 0.0 0.00 0.00 0.00 72 1011.1
20260508044232 46 213 0.0 0.0 0.00 0.00 0.00 72 1011.0
20260508044134 46 213 0.0 0.0 0.00 0.00 0.00 72 1011.0
20260508044036 46 213 0.0 0.0 0.00 0.00 0.00 72 1011.0
20260508043939 46 213 0.0 0.0 0.00 0.00 0.00 72 1011.1
20260508043821 46 213 0.0 0.0 0.00 0.00 0.00 72 1011.0
20260508043724 46 213 0.0 0.0 0.00 0.00 0.00 71 1011.0
20260508043630 46 213 0.0 0.0 0.00 0.00 0.00 71 1011.1
20260508043532 46 213 0.0 0.0 0.00 0.00 0.00 71 1011.1
20260508043454 46 213 0.0 0.0 0.00 0.00 0.00 71 1011.1
20260508043355 46 213 0.0 0.0 0.00 0.00 0.00 71 1011.1
20260508043237 46 213 0.0 0.0 0.00 0.00 0.00 71 1011.1
20260508043200 46 213 0.0 0.0 0.00 0.00 0.00 71 1011.1
20260508043021 46 213 0.0 0.0 0.00 0.00 0.00 70 1011.1
20260508042943 46 213 0.0 0.0 0.00 0.00 0.00 70 1011.1
20260508042829 46 213 0.0 0.0 0.00 0.00 0.00 70 1011.1
20260508042731 46 213 0.0 0.0 0.00 0.00 0.00 70 1011.1
20260508042634 46 213 0.0 0.0 0.00 0.00 0.00 70 1011.1
20260508042535 46 213 0.0 0.0 0.00 0.00 0.00 70 1011.0
20260508042458 46 213 0.0 0.0 0.00 0.00 0.00 70 1011.0
20260508042358 46 213 0.0 0.0 0.00 0.00 0.00 69 1011.0
20260508042240 46 213 0.0 0.0 0.00 0.00 0.00 69 1011.0
20260508042126 47 213 0.0 0.0 0.00 0.00 0.00 69 1011.0
20260508042029 47 213 0.0 0.0 0.00 0.00 0.00 69 1011.0
20260508041931 47 213 0.0 0.0 0.00 0.00 0.00 68 1011.0
20260508041834 47 213 0.0 0.0 0.00 0.00 0.00 68 1011.0
20260508041736 47 213 0.0 0.0 0.00 0.00 0.00 68 1011.0
20260508041638 47 213 0.0 0.0 0.00 0.00 0.00 67 1011.0
20260508041524 47 213 0.0 0.0 0.00 0.00 0.00 67 1011.0
20260508041447 47 213 0.0 0.0 0.00 0.00 0.00 67 1011.0
20260508041328 48 213 0.0 0.0 0.00 0.00 0.00 66 1011.1
20260508041231 48 213 0.0 0.0 0.00 0.00 0.00 66 1011.1
20260508041153 48 213 0.0 0.0 0.00 0.00 0.00 66 1011.1
20260508041034 48 213 0.0 0.0 0.00 0.00 0.00 65 1011.1
20260508040936 48 214 0.0 0.0 0.00 0.00 0.00 65 1011.1
20260508040837 48 215 0.0 0.0 0.00 0.00 0.00 65 1011.1
20260508040723 49 215 0.0 1.0 0.00 0.00 0.00 65 1011.1
20260508040625 49 215 0.0 1.0 0.00 0.00 0.00 64 1011.1
20260508040548 49 215 0.0 1.0 0.00 0.00 0.00 64 1011.1
20260508040429 49 215 0.0 2.0 0.00 0.00 0.00 64 1011.1
20260508040331 49 215 0.0 3.0 0.00 0.00 0.00 63 1011.1
20260508040233 49 215 0.0 3.0 0.00 0.00 0.00 63 1011.1
20260508040155 49 215 0.0 3.0 0.00 0.00 0.00 63 1011.2
20260508040039 49 214 0.0 4.0 0.00 0.00 0.00 63 1011.1
20260508035919 49 215 0.0 4.0 0.00 0.00 0.00 63 1011.1
20260508035757 49 215 0.0 4.0 0.00 0.00 0.00 63 1011.1
20260508035635 49 215 1.0 4.0 0.00 0.00 0.00 62 1011.1
20260508035513 49 211 1.0 4.0 0.00 0.00 0.00 62 1011.1
20260508035334 49 204 2.0 4.0 0.00 0.00 0.00 62 1011.1
20260508035211 49 214 1.0 4.0 0.00 0.00 0.00 62 1011.1
20260508035049 49 207 0.0 0.0 0.00 0.00 0.00 62 1011.0
20260508034931 49 207 0.0 0.0 0.00 0.00 0.00 62 1011.1
20260508034752 49 207 0.0 2.0 0.00 0.00 0.00 62 1011.0
20260508034630 49 207 0.0 3.0 0.00 0.00 0.00 62 1011.1
20260508034444 49 207 0.0 3.0 0.00 0.00 0.00 62 1011.0
20260508034322 49 207 0.0 3.0 0.00 0.00 0.00 62 1011.1
20260508034204 49 207 0.0 3.0 0.00 0.00 0.00 62 1011.1
20260508034021 49 207 1.0 3.0 0.00 0.00 0.00 62 1011.1
20260508033859 49 206 1.0 3.0 0.00 0.00 0.00 62 1011.1
20260508033736 49 207 0.0 3.0 0.00 0.00 0.00 62 1011.1
20260508033614 49 232 0.0 0.0 0.00 0.00 0.00 62 1011.1
20260508033435 49 232 0.0 0.0 0.00 0.00 0.00 62 1011.1
20260508033313 50 232 0.0 0.0 0.00 0.00 0.00 62 1011.1
20260508033155 50 232 0.0 0.0 0.00 0.00 0.00 61 1011.1
20260508033011 50 232 0.0 3.0 0.00 0.00 0.00 61 1011.2
20260508032838 50 232 0.0 3.0 0.00 0.00 0.00 61 1011.2
20260508032716 50 240 0.0 3.0 0.00 0.00 0.00 61 1011.2
20260508032554 50 240 0.0 3.0 0.00 0.00 0.00 61 1011.2
20260508032436 50 240 0.0 6.0 0.00 0.00 0.00 60 1011.2
20260508032318 50 240 1.0 6.0 0.00 0.00 0.00 60 1011.2
20260508032155 50 240 2.0 6.0 0.00 0.00 0.00 61 1011.2
20260508032033 49 238 1.0 6.0 0.00 0.00 0.00 61 1011.2
20260508031911 49 267 1.0 8.0 0.00 0.00 0.00 60 1011.1
20260508031710 49 46 3.0 8.0 0.00 0.00 0.00 61 1011.1
20260508031547 49 355 2.0 8.0 0.00 0.00 0.00 61 1011.2
20260508031404 49 314 2.0 8.0 0.00 0.00 0.00 61 1011.2
20260508031242 49 141 4.0 8.0 0.00 0.00 0.00 61 1011.2
20260508031119 49 233 6.0 8.0 0.00 0.00 0.00 61 1011.3
20260508031001 48 200 4.0 8.0 0.00 0.00 0.00 61 1011.3
20260508030839 48 215 3.0 8.0 0.00 0.00 0.00 61 1011.2
20260508030717 48 205 1.0 8.0 0.00 0.00 0.00 61 1011.2
20260508030555 48 326 2.0 8.0 0.00 0.00 0.00 61 1011.2
20260508030437 48 331 3.0 8.0 0.00 0.00 0.00 62 1011.3
20260508030315 48 22 4.0 8.0 0.00 0.00 0.00 62 1011.3
20260508030152 48 355 4.0 8.0 0.00 0.00 0.00 63 1011.3
20260508030029 48 5 3.0 6.0 0.00 0.00 0.00 64 1011.4
20260508025856 48 333 2.0 4.0 0.00 0.00 0.00 64 1011.3
20260508025737 49 337 2.0 4.0 0.00 0.00 0.00 64 1011.3
20260508025614 49 329 2.0 4.0 0.00 0.00 0.00 64 1011.3
20260508025436 49 331 1.0 3.0 0.00 0.00 0.00 63 1011.2
20260508025305 49 296 0.0 3.0 0.00 0.00 0.00 62 1011.1
20260508025140 49 205 0.0 3.0 0.00 0.00 0.00 62 1011.2
20260508024958 49 188 0.0 4.0 0.00 0.00 0.00 62 1011.1
20260508024838 49 186 1.0 4.0 0.00 0.00 0.00 62 1011.0
20260508024644 49 183 1.0 4.0 0.00 0.00 0.00 62 1011.1
20260508024520 49 190 2.0 4.0 0.00 0.00 0.00 62 1011.1
20260508024358 49 180 2.0 4.0 0.00 0.00 0.00 62 1011.0
20260508024236 49 179 2.0 4.0 0.00 0.00 0.00 62 1011.0
20260508024117 49 178 2.0 3.0 0.00 0.00 0.00 61 1011.0
20260508023955 49 178 2.0 3.0 0.00 0.00 0.00 61 1011.1
20260508023836 49 174 1.0 3.0 0.00 0.00 0.00 60 1011.0
20260508023713 50 186 1.0 3.0 0.00 0.00 0.00 60 1011.1
20260508023540 50 192 0.0 1.0 0.00 0.00 0.00 60 1011.1
20260508023418 50 192 0.0 3.0 0.00 0.00 0.00 59 1011.1
20260508023213 50 192 0.0 3.0 0.00 0.00 0.00 59 1011.1
20260508023050 50 192 0.0 3.0 0.00 0.00 0.00 59 1011.1
20260508022928 50 192 0.0 3.0 0.00 0.00 0.00 59 1011.0
20260508022749 50 192 0.0 3.0 0.00 0.00 0.00 59 1011.0
20260508022631 50 192 1.0 3.0 0.00 0.00 0.00 58 1011.0
20260508022509 50 184 2.0 3.0 0.00 0.00 0.00 59 1011.0
20260508022347 50 183 1.0 3.0 0.00 0.00 0.00 59 1011.0
20260508022229 50 186 0.0 3.0 0.00 0.00 0.00 59 1011.0
20260508022106 50 211 0.0 3.0 0.00 0.00 0.00 58 1011.1
20260508021923 50 217 0.0 3.0 0.00 0.00 0.00 56 1011.2
20260508021740 50 217 0.0 3.0 0.00 0.00 0.00 56 1011.1
20260508021622 50 244 0.0 3.0 0.00 0.00 0.00 55 1011.2
20260508021500 50 244 1.0 3.0 0.00 0.00 0.00 55 1011.2
20260508021317 50 244 2.0 3.0 0.00 0.00 0.00 55 1011.2
20260508021155 50 238 1.0 3.0 0.00 0.00 0.00 55 1011.2
20260508021033 50 205 1.0 4.0 0.00 0.00 0.00 55 1011.2
20260508020854 50 190 1.0 4.0 0.00 0.00 0.00 54 1011.2
20260508020734 50 216 0.0 4.0 0.00 0.00 0.00 54 1011.2
20260508020611 50 209 1.0 4.0 0.00 0.00 0.00 53 1011.2
20260508020431 50 210 1.0 4.0 0.00 0.00 0.00 53 1011.2
20260508020314 50 234 2.0 4.0 0.00 0.00 0.00 53 1011.2
20260508020130 50 231 2.0 4.0 0.00 0.00 0.00 53 1011.2
20260508020007 51 231 2.0 4.0 0.00 0.00 0.00 52 1011.2
20260508015845 51 221 2.0 4.0 0.00 0.00 0.00 52 1011.2
20260508015705 51 218 2.0 4.0 0.00 0.00 0.00 52 1011.2
20260508015543 51 247 2.0 4.0 0.00 0.00 0.00 51 1011.2
20260508015358 51 245 1.0 3.0 0.00 0.00 0.00 51 1011.2
20260508015235 51 246 2.0 3.0 0.00 0.00 0.00 51 1011.1
20260508015101 51 261 1.0 7.0 0.00 0.00 0.00 51 1011.1
20260508014939 51 268 1.0 7.0 0.00 0.00 0.00 51 1011.0
20260508014817 51 268 1.0 7.0 0.00 0.00 0.00 51 1011.0
20260508014655 51 269 0.0 7.0 0.00 0.00 0.00 51 1011.0
20260508014532 51 256 2.0 7.0 0.00 0.00 0.00 51 1010.9
20260508014352 51 255 4.0 7.0 0.00 0.00 0.00 51 1010.9
20260508014234 51 301 1.0 5.0 0.00 0.00 0.00 51 1010.9
20260508014111 51 295 0.0 5.0 0.00 0.00 0.00 51 1010.9
20260508013954 51 295 1.0 5.0 0.00 0.00 0.00 51 1010.9
20260508013814 51 327 1.0 6.0 0.00 0.00 0.00 51 1010.9
20260508013631 51 317 2.0 6.0 0.00 0.00 0.00 50 1010.8
20260508013509 51 333 2.0 6.0 0.00 0.00 0.00 50 1010.8
20260508013347 51 315 2.0 6.0 0.00 0.00 0.00 50 1010.8
20260508013213 51 309 3.0 6.0 0.00 0.00 0.00 50 1010.8
20260508013051 51 311 4.0 6.0 0.00 0.00 0.00 50 1010.8
20260508012929 51 299 3.0 6.0 0.00 0.00 0.00 50 1010.8
20260508012808 51 290 4.0 6.0 0.00 0.00 0.00 50 1010.8
20260508012650 51 304 4.0 6.0 0.00 0.00 0.00 50 1010.8
20260508012528 51 292 3.0 8.0 0.00 0.00 0.00 51 1010.8
20260508012343 51 287 3.0 9.0 0.00 0.00 0.00 51 1010.7
20260508012221 51 304 2.0 14.0 0.00 0.00 0.00 51 1010.8
20260508012058 51 314 3.0 14.0 0.00 0.00 0.00 51 1010.8
20260508011941 51 341 4.0 14.0 0.00 0.00 0.00 51 1010.9
20260508011736 51 302 4.0 14.0 0.00 0.00 0.00 51 1010.9
20260508011613 51 280 6.0 14.0 0.00 0.00 0.00 50 1010.9
20260508011451 51 295 6.0 14.0 0.00 0.00 0.00 50 1010.9
20260508011333 51 240 7.0 11.0 0.00 0.00 0.00 49 1010.9
20260508011153 51 286 4.0 9.0 0.00 0.00 0.00 49 1010.9
20260508011010 51 276 2.0 3.0 0.00 0.00 0.00 50 1010.9
20260508010828 51 269 2.0 3.0 0.00 0.00 0.00 49 1010.9
20260508010711 51 273 1.0 3.0 0.00 0.00 0.00 50 1010.9
20260508010553 51 284 0.0 3.0 0.00 0.00 0.00 49 1011.0
20260508010410 51 286 0.0 3.0 0.00 0.00 0.00 49 1010.9
20260508010247 51 313 0.0 3.0 0.00 0.00 0.00 49 1010.9
20260508010125 51 313 0.0 3.0 0.00 0.00 0.00 50 1010.9
20260508010007 51 313 0.0 3.0 0.00 0.00 0.00 50 1010.8
20260508005845 51 313 1.0 3.0 0.00 0.00 0.00 50 1010.8
20260508005723 51 323 1.0 2.0 0.00 0.00 0.00 49 1010.8
20260508005600 51 323 0.0 0.0 0.00 0.00 0.00 50 1010.8
20260508005421 51 323 0.0 0.0 0.00 0.00 0.00 50 1010.7
20260508005258 51 323 0.0 0.0 0.00 0.00 0.00 50 1010.7
20260508005118 51 323 0.0 2.0 0.00 0.00 0.00 51 1010.7
20260508004934 51 323 0.0 3.0 0.00 0.00 0.00 50 1010.6
20260508004816 51 323 0.0 3.0 0.00 0.00 0.00 51 1010.7
20260508004655 51 323 0.0 3.0 0.00 0.00 0.00 51 1010.7
20260508004535 51 323 0.0 3.0 0.00 0.00 0.00 51 1010.6
20260508004412 51 323 0.0 3.0 0.00 0.00 0.00 51 1010.6
20260508004239 51 323 2.0 3.0 0.00 0.00 0.00 49 1010.6
20260508004055 51 344 2.0 3.0 0.00 0.00 0.00 49 1010.6
20260508003934 52 38 0.0 3.0 0.00 0.00 0.00 49 1010.5
20260508003754 52 331 0.0 3.0 0.00 0.00 0.00 50 1010.6
20260508003621 52 317 1.0 7.0 0.00 0.00 0.00 49 1010.6
20260508003437 52 329 0.0 7.0 0.00 0.00 0.00 48 1010.6
20260508003316 52 302 1.0 7.0 0.00 0.00 0.00 48 1010.5
20260508003153 52 305 1.0 7.0 0.00 0.00 0.00 48 1010.5
20260508003031 52 304 2.0 7.0 0.00 0.00 0.00 47 1010.6
20260508002913 52 325 4.0 7.0 0.00 0.00 0.00 47 1010.5
20260508002751 52 311 2.0 6.0 0.00 0.00 0.00 47 1010.5
20260508002629 52 328 1.0 5.0 0.00 0.00 0.00 47 1010.6
20260508002507 52 302 2.0 5.0 0.00 0.00 0.00 46 1010.5
20260508002331 52 296 0.0 4.0 0.00 0.00 0.00 46 1010.5
20260508002209 52 275 0.0 2.0 0.00 0.00 0.00 46 1010.6
20260508002047 52 273 0.0 2.0 0.00 0.00 0.00 46 1010.5
20260508001925 52 273 0.0 2.0 0.00 0.00 0.00 46 1010.5
20260508001807 52 273 0.0 2.0 0.00 0.00 0.00 46 1010.5
20260508001645 52 273 0.0 3.0 0.00 0.00 0.00 46 1010.5
20260508001523 52 273 1.0 3.0 0.00 0.00 0.00 46 1010.4
20260508001359 52 287 1.0 5.0 0.00 0.00 0.00 46 1010.5
20260508001220 52 286 0.0 6.0 0.00 0.00 0.00 46 1010.5
20260508001058 52 309 0.0 6.0 0.00 0.00 0.00 46 1010.5
20260508000935 52 311 1.0 6.0 0.00 0.00 0.00 45 1010.5
20260508000757 52 329 2.0 6.0 0.00 0.00 0.00 45 1010.5
20260508000639 52 281 4.0 6.0 0.00 0.00 0.00 45 1010.4
20260508000520 52 304 4.0 6.0 0.00 0.00 0.00 46 1010.5
20260508000359 52 298 3.0 6.0 0.00 0.00 0.00 46 1010.5
20260508000238 52 297 3.0 6.0 0.00 0.00 0.00 46 1010.5
20260508000115 52 304 4.0 6.0 0.00 0.00 0.00 46 1010.6
20260507235957 52 292 3.0 7.0 0.00 0.00 0.00 46 1010.6
20260507235814 53 342 3.0 7.0 0.00 0.00 0.00 46 1010.5
20260507235652 53 340 2.0 8.0 0.00 0.00 0.00 46 1010.6
20260507235508 52 299 3.0 8.0 0.00 0.00 0.00 46 1010.6
20260507235329 53 305 4.0 8.0 0.00 0.00 0.00 45 1010.6
20260507235147 53 299 4.0 9.0 0.00 0.00 0.00 45 1010.6
20260507235025 53 294 3.0 9.0 0.00 0.00 0.00 44 1010.5
20260507234842 53 311 6.0 9.0 0.00 0.00 0.00 44 1010.5
20260507234659 53 286 5.0 9.0 0.00 0.00 0.00 44 1010.5
20260507234540 53 306 5.0 9.0 0.00 0.00 0.00 44 1010.4
20260507234357 53 307 5.0 9.0 0.00 0.00 0.00 44 1010.4
20260507234235 53 300 5.0 9.0 0.00 0.00 0.00 44 1010.4
20260507234118 53 305 3.0 8.0 0.00 0.00 0.00 45 1010.4
20260507234000 53 304 2.0 6.0 0.00 0.00 0.00 45 1010.3
20260507233838 53 306 4.0 6.0 0.00 0.00 0.00 44 1010.4
20260507233654 53 316 4.0 6.0 0.00 0.00 0.00 44 1010.4
20260507233531 53 288 4.0 6.0 0.00 0.00 0.00 45 1010.4
20260507233413 53 315 3.0 6.0 0.00 0.00 0.00 45 1010.5
20260507233250 53 330 1.0 6.0 0.00 0.00 0.00 45 1010.4
20260507233128 53 300 3.0 8.0 0.00 0.00 0.00 45 1010.5
20260507233005 53 313 3.0 9.0 0.00 0.00 0.00 44 1010.4
20260507232822 53 310 3.0 10.0 0.00 0.00 0.00 44 1010.5
20260507232704 53 300 4.0 10.0 0.00 0.00 0.00 44 1010.5
20260507232541 53 296 3.0 10.0 0.00 0.00 0.00 44 1010.5
20260507232357 53 271 5.0 12.0 0.00 0.00 0.00 44 1010.5
20260507232234 53 315 6.0 12.0 0.00 0.00 0.00 43 1010.5
20260507232116 53 301 6.0 12.0 0.00 0.00 0.00 43 1010.5
20260507231958 53 322 5.0 12.0 0.00 0.00 0.00 44 1010.5
20260507231836 53 305 6.0 12.0 0.00 0.00 0.00 43 1010.5
20260507231713 53 300 7.0 12.0 0.00 0.00 0.00 43 1010.5
20260507231555 53 274 5.0 11.0 0.00 0.00 0.00 44 1010.5
20260507231438 53 280 6.0 11.0 0.00 0.00 0.00 43 1010.5
20260507231315 53 276 4.0 9.0 0.00 0.00 0.00 43 1010.5
20260507231157 53 336 5.0 9.0 0.00 0.00 0.00 43 1010.5
20260507231034 53 306 5.0 9.0 0.00 0.00 0.00 43 1010.5
20260507230915 54 333 4.0 9.0 0.00 0.00 0.00 43 1010.6
20260507230751 54 246 4.0 12.0 0.00 0.00 0.00 43 1010.6
20260507230608 54 308 4.0 13.0 0.00 0.00 0.00 43 1010.6
20260507230446 54 290 6.0 13.0 0.00 0.00 0.00 43 1010.6
20260507230311 54 243 5.0 13.0 0.00 0.00 0.00 43 1010.7
20260507230128 54 273 6.0 13.0 0.00 0.00 0.00 43 1010.7
20260507225948 54 268 9.0 13.0 0.00 0.00 0.00 42 1010.6
20260507225805 54 295 9.0 13.0 0.00 0.00 0.00 42 1010.7
20260507225647 54 250 6.0 11.0 0.00 0.00 0.00 43 1010.7
20260507225503 54 276 4.0 11.0 0.00 0.00 0.00 44 1010.7
20260507225340 54 304 5.0 15.0 0.00 0.00 0.00 43 1010.7
20260507225218 54 259 6.0 15.0 0.00 0.00 0.00 43 1010.7
20260507225059 54 266 5.0 16.0 0.00 0.00 0.00 43 1010.7
20260507224936 54 268 7.0 16.0 0.00 0.00 0.00 43 1010.7
20260507224814 54 277 8.0 16.0 0.00 0.00 0.00 42 1010.7
20260507224635 54 286 9.0 16.0 0.00 0.00 0.00 42 1010.7
20260507224459 54 288 8.0 16.0 0.00 0.00 0.00 42 1010.7
20260507224338 54 257 10.0 16.0 0.00 0.00 0.00 42 1010.7
20260507224217 54 322 7.0 13.0 0.00 0.00 0.00 42 1010.8
20260507224037 54 294 7.0 13.0 0.00 0.00 0.00 42 1010.7
20260507223857 54 325 7.0 13.0 0.00 0.00 0.00 42 1010.7
20260507223726 54 273 4.0 16.0 0.00 0.00 0.00 43 1010.7
20260507223605 54 326 4.0 16.0 0.00 0.00 0.00 43 1010.7
20260507223448 54 281 5.0 16.0 0.00 0.00 0.00 43 1010.7
20260507223316 53 308 6.0 16.0 0.00 0.00 0.00 43 1010.7
20260507223158 53 279 7.0 16.0 0.00 0.00 0.00 42 1010.7
20260507223037 53 325 10.0 16.0 0.00 0.00 0.00 42 1010.7
20260507222918 54 289 8.0 16.0 0.00 0.00 0.00 42 1010.7
20260507222725 54 305 9.0 16.0 0.00 0.00 0.00 41 1010.7
20260507222604 54 302 10.0 16.0 0.00 0.00 0.00 41 1010.8
20260507222442 54 242 10.0 15.0 0.00 0.00 0.00 41 1010.7
20260507222258 54 275 6.0 15.0 0.00 0.00 0.00 41 1010.7
20260507222125 54 231 6.0 15.0 0.00 0.00 0.00 41 1010.7
20260507221922 54 232 7.0 13.0 0.00 0.00 0.00 42 1010.8
20260507221801 54 279 7.0 13.0 0.00 0.00 0.00 42 1010.7
20260507221639 54 306 6.0 13.0 0.00 0.00 0.00 42 1010.7
20260507221506 54 291 9.0 13.0 0.00 0.00 0.00 42 1010.7
20260507221344 54 280 8.0 13.0 0.00 0.00 0.00 43 1010.7
20260507221222 54 284 5.0 11.0 0.00 0.00 0.00 43 1010.8
20260507221101 54 275 5.0 18.0 0.00 0.00 0.00 43 1010.7
20260507220904 53 269 7.0 18.0 0.00 0.00 0.00 44 1010.8
20260507220721 53 311 6.0 18.0 0.00 0.00 0.00 43 1010.8
20260507220603 53 256 6.0 18.0 0.00 0.00 0.00 43 1010.9
20260507220404 53 306 10.0 18.0 0.00 0.00 0.00 42 1010.8
20260507220241 53 344 7.0 18.0 0.00 0.00 0.00 43 1010.8
20260507220124 53 309 9.0 18.0 0.00 0.00 0.00 42 1010.9
20260507220008 53 229 10.0 18.0 0.00 0.00 0.00 42 1010.9
20260507215849 53 247 11.0 18.0 0.00 0.00 0.00 43 1010.9
20260507215711 53 298 9.0 18.0 0.00 0.00 0.00 43 1010.9
20260507215554 53 274 4.0 13.0 0.00 0.00 0.00 44 1010.9
20260507215437 53 299 3.0 13.0 0.00 0.00 0.00 44 1010.8
20260507215302 53 308 5.0 16.0 0.00 0.00 0.00 44 1010.9
20260507215145 53 326 7.0 16.0 0.00 0.00 0.00 43 1010.9
20260507215027 53 312 9.0 16.0 0.00 0.00 0.00 42 1010.9
20260507214910 53 306 9.0 16.0 0.00 0.00 0.00 43 1010.9
20260507214752 53 321 9.0 16.0 0.00 0.00 0.00 42 1010.9
20260507214630 53 291 10.0 17.0 0.00 0.00 0.00 42 1010.9
20260507214458 53 279 7.0 17.0 0.00 0.00 0.00 43 1010.9
20260507214340 53 285 10.0 17.0 0.00 0.00 0.00 42 1010.9
20260507214201 53 303 9.0 17.0 0.00 0.00 0.00 43 1010.9
20260507214039 53 290 10.0 17.0 0.00 0.00 0.00 43 1010.9
20260507213921 53 307 12.0 17.0 0.00 0.00 0.00 42 1010.9
20260507213758 53 292 10.0 19.0 0.00 0.00 0.00 43 1011.0
20260507213641 53 286 10.0 19.0 0.00 0.00 0.00 43 1010.9
20260507213457 53 311 11.0 19.0 0.00 0.00 0.00 42 1010.9
20260507213318 53 273 11.0 19.0 0.00 0.00 0.00 42 1010.8
20260507213200 54 301 11.0 19.0 0.00 0.00 0.00 42 1010.9
20260507213020 54 242 10.0 19.0 0.00 0.00 0.00 43 1010.8
20260507212857 54 305 8.0 15.0 0.00 0.00 0.00 42 1010.8
20260507212735 54 242 8.0 15.0 0.00 0.00 0.00 42 1010.8
20260507212616 54 269 7.0 17.0 0.00 0.00 0.00 42 1010.7
20260507212459 54 292 8.0 17.0 0.00 0.00 0.00 42 1010.8
20260507212341 54 307 6.0 17.0 0.00 0.00 0.00 42 1010.8
20260507212219 54 299 8.0 17.0 0.00 0.00 0.00 42 1010.8
20260507212026 54 206 9.0 17.0 0.00 0.00 0.00 42 1010.8
20260507211845 54 273 11.0 17.0 0.00 0.00 0.00 42 1010.9
20260507211723 54 277 9.0 17.0 0.00 0.00 0.00 43 1010.8
20260507211606 54 302 8.0 17.0 0.00 0.00 0.00 43 1010.8
20260507211448 54 325 6.0 12.0 0.00 0.00 0.00 43 1010.8
20260507211325 54 246 6.0 18.0 0.00 0.00 0.00 44 1010.9
20260507211142 53 355 6.0 18.0 0.00 0.00 0.00 43 1010.9
20260507211020 53 300 5.0 18.0 0.00 0.00 0.00 43 1010.9
20260507210848 53 293 6.0 18.0 0.00 0.00 0.00 42 1010.9
20260507210731 53 244 7.0 18.0 0.00 0.00 0.00 43 1010.9
20260507210609 53 246 11.0 18.0 0.00 0.00 0.00 42 1010.9
20260507210448 54 286 8.0 16.0 0.00 0.00 0.00 43 1010.9
20260507210313 53 272 7.0 17.0 0.00 0.00 0.00 43 1010.8
20260507210151 53 360 7.0 17.0 0.00 0.00 0.00 44 1010.8
20260507210008 53 264 7.0 17.0 0.00 0.00 0.00 43 1010.8
20260507205847 53 340 8.0 17.0 0.00 0.00 0.00 44 1010.8
20260507205712 53 292 12.0 17.0 0.00 0.00 0.00 43 1010.8
20260507205553 53 314 9.0 17.0 0.00 0.00 0.00 44 1010.9
20260507205435 53 304 5.0 16.0 0.00 0.00 0.00 45 1010.9
20260507205317 53 299 7.0 16.0 0.00 0.00 0.00 43 1010.9
20260507205200 53 304 8.0 16.0 0.00 0.00 0.00 43 1010.9
20260507205042 53 323 8.0 20.0 0.00 0.00 0.00 43 1010.9
20260507204920 53 320 9.0 24.0 0.00 0.00 0.00 42 1010.9
20260507204758 53 298 10.0 24.0 0.00 0.00 0.00 43 1010.9
20260507204617 53 342 10.0 24.0 0.00 0.00 0.00 42 1010.9